ITY354 LIRF-LFMN

Flight info

Callsign ITY354
Flight time 0h 45m
Altitude 30000
Route XENOL5AXPODOX9E/25 PODOX DCT TOBGA DCT DOBIM DCT AKUTI R16 KERIT KERI8R LFMN/04L
Aircraft A319/M-SDE3FGHIRWY/LB1

Departure

Time 2026-05-01 13:07
Airport Rome–Fiumicino Leonardo da Vinci International Airport (LIRF)

Arrival

Time 2026-05-01 13:52
Airport Nice-Côte d'Azur Airport (LFMN)
Time Latitude Longitude Altitude Speed Heading
2026-05-01 12:31 41.79690 12.24855 14 ft 0 kts 250°
2026-05-01 12:53 41.79694 12.24868 14 ft 4 kts 251°
2026-05-01 12:53 41.79702 12.24903 15 ft 4 kts 258°
2026-05-01 12:54 41.79705 12.24938 14 ft 4 kts 280°
2026-05-01 12:54 41.79694 12.24963 16 ft 0 kts 339°
2026-05-01 12:57 41.79695 12.24962 16 ft 1 kts 339°
2026-05-01 12:58 41.79711 12.24955 16 ft 9 kts 339°
2026-05-01 12:58 41.79796 12.24911 14 ft 14 kts 339°
2026-05-01 12:58 41.79893 12.24864 14 ft 16 kts 340°
2026-05-01 12:59 41.80071 12.24779 14 ft 17 kts 342°
2026-05-01 12:59 41.80185 12.24804 15 ft 17 kts 46°
2026-05-01 12:59 41.80223 12.25132 14 ft 19 kts 68°
2026-05-01 13:00 41.80316 12.25468 16 ft 19 kts 70°
2026-05-01 13:00 41.80364 12.25641 17 ft 20 kts 70°
2026-05-01 13:01 41.80466 12.26011 16 ft 22 kts 69°
2026-05-01 13:01 41.80518 12.26202 16 ft 22 kts 70°
2026-05-01 13:01 41.80625 12.26591 16 ft 23 kts 70°
2026-05-01 13:02 41.80675 12.26768 15 ft 18 kts 70°
2026-05-01 13:07 41.79020 12.02536 7923 ft 284 kts 273°
2026-05-01 13:07 41.79020 11.99890 8547 ft 291 kts 273°
2026-05-01 13:07 41.79016 11.97163 9189 ft 295 kts 273°
2026-05-01 13:08 41.79011 11.94406 9843 ft 298 kts 273°
2026-05-01 13:08 41.79005 11.91614 10472 ft 304 kts 274°
2026-05-01 13:08 41.78997 11.88702 11088 ft 320 kts 274°
2026-05-01 13:08 41.78988 11.85655 11711 ft 334 kts 274°
2026-05-01 13:09 41.78980 11.82487 12343 ft 345 kts 274°
2026-05-01 13:09 41.79270 11.79299 12919 ft 344 kts 291°
2026-05-01 13:09 41.80310 11.76467 13508 ft 337 kts 311°
2026-05-01 13:09 41.81758 11.73990 14096 ft 339 kts 314°
2026-05-01 13:10 41.83223 11.71515 14622 ft 341 kts 314°
2026-05-01 13:10 41.84701 11.69017 15157 ft 342 kts 314°
2026-05-01 13:10 41.86184 11.66504 15671 ft 344 kts 315°
2026-05-01 13:10 41.87675 11.63975 16227 ft 346 kts 315°
2026-05-01 13:11 41.89166 11.61436 16796 ft 348 kts 315°
2026-05-01 13:11 41.90672 11.58874 17383 ft 350 kts 316°
2026-05-01 13:11 41.92186 11.56298 17975 ft 353 kts 316°
2026-05-01 13:11 41.93708 11.53704 18564 ft 355 kts 316°
2026-05-01 13:12 41.95240 11.51087 19091 ft 357 kts 316°
2026-05-01 13:12 41.96782 11.48454 19614 ft 359 kts 316°
2026-05-01 13:12 41.98329 11.45812 20155 ft 361 kts 317°
2026-05-01 13:12 41.99887 11.43147 20706 ft 364 kts 317°
2026-05-01 13:13 42.01458 11.40455 21271 ft 366 kts 317°
2026-05-01 13:13 42.03032 11.37750 21855 ft 369 kts 317°
2026-05-01 13:13 42.04619 11.35020 22424 ft 371 kts 317°
2026-05-01 13:13 42.06217 11.32273 23002 ft 375 kts 317°
2026-05-01 13:14 42.07836 11.29495 23540 ft 378 kts 316°
2026-05-01 13:14 42.09446 11.26728 24091 ft 381 kts 316°
2026-05-01 13:14 42.11084 11.23910 24600 ft 384 kts 316°
2026-05-01 13:14 42.12733 11.21066 25119 ft 385 kts 315°
2026-05-01 13:15 42.14380 11.18216 25653 ft 387 kts 315°
2026-05-01 13:15 42.16030 11.15357 26190 ft 387 kts 315°
2026-05-01 13:15 42.17691 11.12485 26746 ft 388 kts 315°
2026-05-01 13:15 42.19348 11.09614 27309 ft 388 kts 315°
2026-05-01 13:16 42.21008 11.06738 27887 ft 388 kts 315°
2026-05-01 13:16 42.22662 11.03872 28472 ft 388 kts 315°
2026-05-01 13:16 42.24226 11.00880 29068 ft 390 kts 311°
2026-05-01 13:17 42.28652 10.91564 30242 ft 398 kts 309°
2026-05-01 13:17 42.30121 10.88403 30248 ft 397 kts 309°
2026-05-01 13:18 42.34535 10.78959 30249 ft 396 kts 309°
2026-05-01 13:18 42.37493 10.72686 30256 ft 396 kts 309°
2026-05-01 13:19 42.40448 10.66413 30262 ft 396 kts 309°
2026-05-01 13:20 42.44875 10.56966 30211 ft 396 kts 308°
2026-05-01 13:20 42.47794 10.50714 30274 ft 396 kts 308°
2026-05-01 13:21 42.52193 10.41236 30281 ft 396 kts 308°
2026-05-01 13:21 42.55121 10.34933 30285 ft 395 kts 308°
2026-05-01 13:22 42.58056 10.28609 30269 ft 396 kts 308°
2026-05-01 13:22 42.60992 10.22273 30268 ft 397 kts 308°
2026-05-01 13:23 42.63933 10.15906 30270 ft 400 kts 307°
2026-05-01 13:23 42.66880 10.09494 30290 ft 400 kts 307°
2026-05-01 13:24 42.69823 10.03069 30293 ft 400 kts 307°
2026-05-01 13:25 42.74238 9.93434 30299 ft 400 kts 307°
2026-05-01 13:25 42.77186 9.87001 29818 ft 401 kts 307°
2026-05-01 13:25 42.78657 9.83780 29415 ft 401 kts 307°
2026-05-01 13:26 42.80134 9.80542 28988 ft 404 kts 306°
2026-05-01 13:26 42.81621 9.77279 28618 ft 406 kts 306°
2026-05-01 13:26 42.83106 9.74007 28241 ft 405 kts 306°
2026-05-01 13:26 42.84584 9.70745 27858 ft 404 kts 306°
2026-05-01 13:27 42.86055 9.67495 27512 ft 402 kts 306°
2026-05-01 13:27 42.87522 9.64253 27147 ft 401 kts 306°
2026-05-01 13:27 42.90435 9.57818 26441 ft 397 kts 306°
2026-05-01 13:28 42.93298 9.51464 25742 ft 394 kts 306°
2026-05-01 13:28 42.94726 9.48296 25416 ft 392 kts 306°
2026-05-01 13:29 42.97587 9.41947 24716 ft 393 kts 306°
2026-05-01 13:29 43.00444 9.35581 24079 ft 392 kts 306°
2026-05-01 13:30 43.06092 9.22965 22593 ft 386 kts 306°
2026-05-01 13:31 43.08883 9.16723 21903 ft 383 kts 306°
2026-05-01 13:31 43.13023 9.07421 20969 ft 381 kts 305°
2026-05-01 13:32 43.15772 9.01230 20376 ft 380 kts 305°
2026-05-01 13:33 43.19865 8.91997 19504 ft 376 kts 305°
2026-05-01 13:33 43.21452 8.85121 18940 ft 384 kts 284°
2026-05-01 13:34 43.22390 8.77968 18346 ft 382 kts 283°
2026-05-01 13:34 43.23316 8.70842 17698 ft 378 kts 283°
2026-05-01 13:35 43.24269 8.63765 17077 ft 375 kts 283°
2026-05-01 13:35 43.24743 8.60264 16776 ft 373 kts 283°
2026-05-01 13:35 43.25678 8.53309 16164 ft 369 kts 283°
2026-05-01 13:36 43.26141 8.49847 15857 ft 367 kts 283°
2026-05-01 13:36 43.26598 8.46420 15560 ft 365 kts 283°
2026-05-01 13:36 43.27506 8.39596 14982 ft 362 kts 283°
2026-05-01 13:37 43.27954 8.36212 14693 ft 360 kts 283°
2026-05-01 13:37 43.28405 8.32830 14395 ft 358 kts 283°
2026-05-01 13:37 43.28872 8.29486 14118 ft 357 kts 283°
2026-05-01 13:37 43.29339 8.26148 13797 ft 355 kts 283°
2026-05-01 13:38 43.30264 8.19506 13172 ft 352 kts 283°
2026-05-01 13:38 43.30717 8.16218 12864 ft 350 kts 284°
2026-05-01 13:38 43.31160 8.12989 12557 ft 347 kts 283°
2026-05-01 13:39 43.31606 8.09742 12252 ft 346 kts 283°
2026-05-01 13:39 43.32045 8.06525 11950 ft 338 kts 283°
2026-05-01 13:39 43.32474 8.03391 11649 ft 330 kts 283°
2026-05-01 13:39 43.32891 8.00332 11355 ft 323 kts 283°
2026-05-01 13:40 43.33289 7.97322 11066 ft 317 kts 283°
2026-05-01 13:40 43.33687 7.94370 10767 ft 311 kts 283°
2026-05-01 13:40 43.34069 7.91473 10477 ft 306 kts 283°
2026-05-01 13:40 43.34425 7.88613 10193 ft 302 kts 283°
2026-05-01 13:41 43.34778 7.85787 9880 ft 298 kts 284°
2026-05-01 13:41 43.35142 7.83000 9563 ft 294 kts 283°
2026-05-01 13:41 43.35499 7.80256 9252 ft 289 kts 283°
2026-05-01 13:41 43.35841 7.77555 8943 ft 284 kts 283°
2026-05-01 13:42 43.36194 7.74887 8639 ft 281 kts 283°
2026-05-01 13:42 43.36540 7.72249 8370 ft 280 kts 283°
2026-05-01 13:42 43.36879 7.69619 8302 ft 279 kts 283°
2026-05-01 13:42 43.37213 7.66982 8309 ft 281 kts 284°
2026-05-01 13:43 43.37545 7.64334 8312 ft 281 kts 283°
2026-05-01 13:43 43.37890 7.61693 8232 ft 281 kts 283°
2026-05-01 13:43 43.38127 7.59028 8036 ft 281 kts 278°
2026-05-01 13:43 43.38317 7.56374 7830 ft 278 kts 278°
2026-05-01 13:44 43.38509 7.53737 7617 ft 276 kts 278°
2026-05-01 13:44 43.38712 7.51122 7396 ft 274 kts 279°
2026-05-01 13:44 43.38905 7.48519 7168 ft 274 kts 278°
2026-05-01 13:44 43.39033 7.46793 7030 ft 273 kts 278°
2026-05-01 13:45 43.39230 7.44213 6819 ft 271 kts 278°
2026-05-01 13:45 43.39432 7.41644 6597 ft 270 kts 278°
2026-05-01 13:45 43.39628 7.39071 6365 ft 270 kts 278°
2026-05-01 13:45 43.39820 7.36507 6137 ft 271 kts 278°
2026-05-01 13:46 43.40018 7.33940 5910 ft 270 kts 278°
2026-05-01 13:46 43.40221 7.31356 5682 ft 271 kts 278°
2026-05-01 13:46 43.40430 7.28790 5453 ft 270 kts 281°
2026-05-01 13:46 43.41069 7.26429 5242 ft 258 kts 305°
2026-05-01 13:47 43.42071 7.24443 5011 ft 249 kts 308°
2026-05-01 13:47 43.43054 7.22525 4782 ft 242 kts 309°
2026-05-01 13:47 43.44012 7.20655 4554 ft 238 kts 309°
2026-05-01 13:47 43.44968 7.18795 4320 ft 238 kts 309°
2026-05-01 13:48 43.46067 7.17143 4095 ft 231 kts 330°
2026-05-01 13:48 43.47497 7.16272 3871 ft 223 kts 354°
2026-05-01 13:48 43.49030 7.16083 3614 ft 221 kts
2026-05-01 13:48 43.50560 7.15943 3313 ft 220 kts
2026-05-01 13:49 43.52079 7.15799 3052 ft 218 kts
2026-05-01 13:49 43.53589 7.15653 3000 ft 216 kts
2026-05-01 13:49 43.55037 7.15507 3001 ft 198 kts
2026-05-01 13:49 43.56331 7.15389 3007 ft 173 kts
2026-05-01 13:50 43.57421 7.15611 2934 ft 150 kts 18°
2026-05-01 13:50 43.58404 7.15808 2707 ft 142 kts 14°
2026-05-01 13:50 43.59388 7.15960 2400 ft 139 kts 14°
2026-05-01 13:50 43.60346 7.16124 1985 ft 139 kts 15°
2026-05-01 13:51 43.61272 7.16407 1619 ft 138 kts 23°
2026-05-01 13:51 43.62150 7.16971 1294 ft 141 kts 35°
2026-05-01 13:51 43.63032 7.17662 900 ft 148 kts 36°
2026-05-01 13:51 43.63819 7.18506 570 ft 139 kts 46°
2026-05-01 13:52 43.64494 7.19410 278 ft 131 kts 47°
2026-05-01 13:52 43.65099 7.20284 82 ft 124 kts 47°
2026-05-01 13:52 43.65449 7.20877 21 ft 50 kts 42°
2026-05-01 13:52 43.65539 7.20972 24 ft 0 kts 38°
2026-05-01 13:53 43.65547 7.20979 23 ft 3 kts 28°
2026-05-01 13:53 43.65611 7.21046 24 ft 0 kts 38°
2026-05-01 13:53 43.65625 7.21117 25 ft 0 kts 94°